STARLINK-1920, 46751

Orbit data source: Space-Track

STARLINK-1920, 46751 is a payload satellite owned by SpaceX/Seattle (US) in LEO that was launched on Sat, 24 Oct 2020 UTC via an FALCON 9 launch vehicle from the Air Force Eastern Test Range (AFETR). Payloads include a variety of satellites, spacecraft, and rockets equipped with specific instruments for various scientific and technological missions. These include communications satellites like Starlink; space stations such as the ISS; scientific satellites like the Hubble; Earth observation satellites from companies like Planet Labs, Umbra, and HawkEye 360; GPS; miniature CubeSats for education and research; and military/defense satellites.

Loading next visibility...
STARLINK-1920 details
Identifier
46751, 2020-074N
Orbit
LEO
Last TLE update20 hours ago
Origin
Flag of USSpaceX/Seattle (US)
ManufacturerSpaceX/Seattle
MissionPartially operational Commercial Communications
Bus & MotorSTARLINK, Unknown motor
Mass260 kg wet, ~248 kg dry
Launch date (UTC)
2020-10-24 (4 years ago)
Launch vehicle
FALCON 9
Launch site
Air Force Eastern Test Range (AFETR)
Object type
Payload
Rocket body
Debris
Shape & HBRBox + 1 Pan, 8.86 m
Radar Cross Section13.562 m², Large (>1 m²)

Expand to show TLE details & history

TLE from 20 hours ago
0 STARLINK-1920
1 46751U 20074N   24347.57673118  .00100002  00000-0  26863-2 0  9994
2 46751  53.0499 181.8835 0001327 151.1543 208.9533 15.37129532228675
Epoch: 2024-12-12T13:50Z
Definitive object data (Epoch: 2024-12-12T13:50:29.573Z)
Latitude-0.00004°
Longitude-107.49482°
Altitude456.286 km
Speed7.64 km/s
True Right ascension12h 07m 32s
True Declination0° 00' 00"
Sunlit
Object was in daylight at TLE epoch
Visualization TLE readout
Latitude-24.13983°
Longitude88.23959°
Altitude460.567 km
Speed7.637 km/s
Apparent Right ascension22h 56m 48s
Apparent Declination-38° 13' 13"
Sunlit
Object is in daylight
Visualization observer readout
Local Sidereal Time07:58:27
Azimuth258.172° W
Elevation-55.704°
Doppler factor1
Orbital elements
Apogee altitude455.784 km
Perigee altitude453.971 km
Semi-major axis6,833.015 km
Eccentricity0.0001327
Inclination53.0499°
RAAN181.8835°
Arg. of periapsis151.1543°
True anomaly208.94594°
Mean anomaly208.9533°
Eccentric anomaly208.94962°
Mean motion3.8426 °/min
BSTAR0.0026863
Orbital period93.69 mins
Loading maneuver chart data...

STARLINK-1920 Visibility forecast

Observer location: undefined°, undefined

Span
Click to sort rows by Start time (UTC) header in descending order
Start Az.
Max El. time (UTC)
Max El. Az.
Max El.
End time (UTC)
End Az.
5 mins2024-12-13 14:57:41.082Z187.782° SSW2024-12-13 15:00:41.082Z123.434° SE24.026°2024-12-13 15:02:41.082Z80.405° E
5 mins2024-12-13 16:35:41.082Z270.639° WNW2024-12-13 16:37:41.082Z323.845° NNW29.895°2024-12-13 16:40:41.082Z33.206° NE
4 mins2024-12-13 21:31:41.082Z347.454° N2024-12-13 21:33:41.082Z43.123° NE24.343°2024-12-13 21:35:41.082Z83.917° E
5 mins2024-12-13 23:08:41.082Z284.702° WNW2024-12-13 23:10:41.082Z229.238° WSW31.356°2024-12-13 23:13:41.082Z159.685° S
|